Regional Weather Roundup
Issued by NWS

Home | Current Version | Previous Version | Text Only | Print | Product List | Glossary On
Versions: 1 2 3 4 5 6 7 8 9 10 11 12 13 14 15 16 17 18 19 20 21 22 23 24 25 26 27 28 29 30 31 32 33 34 35 36 37 38 39 40 41 42 43 44 45 46 47 48 49 50
000
ASUS46 KLOX 302313
RWRCA

SOUTHERN CALIFORNIA WEATHER ROUNDUP
NATIONAL WEATHER SERVICE OXNARD CALIFORNIA
400 PM PDT SAT MAY 30 2015

NOTE: "FAIR" INDICATES FEW OR NO CLOUDS BELOW 12,000 FEET WITH NO
SIGNIFICANT WEATHER AND/OR OBSTRUCTIONS TO VISIBILITY.

  -  STATIONS PRECEEDED BY AN ASTERISK (*) ARE NOT NWS OR FAA
     STATIONS AND ARE NOT SUBJECT TO NWS AND FAA QUALITY CONTROL.

CAZ041-042-087-310000-
LA AND ORANGE COUNTY COASTAL AREAS


CITY           SKY/WX    TMP DP  RH WIND       PRES   REMARKS
L.A. DOWNTOWN  SUNNY     71  58  63 VRB6      29.90F
L.A. AIRPORT   MOSUNNY   65  57  75 W13       29.92F
LONG BEACH     MOSUNNY   71  58  63 S9        29.90F

CITY           SKY/WX    TMP DP  RH WIND       PRES   REMARKS
AVALON           N/A     66 N/A N/A N3          N/A
FULLERTON      SUNNY     77  56  48 S7        29.89F
*GETTY CENTER    N/A     72  57  60 S7          N/A
HAWTHORNE      SUNNY     70  56  61 SW12      29.91F
*LOS ALAMITOS  FAIR      72  60  65 S9        29.90F
*REDONDO BEACH   N/A     69  57  65 W2        29.92F
SANTA ANA      PTSUNNY   71  56  58 VRB6      29.90F
STA MONICA APT SUNNY     66  57  72 SW10      29.92F
*STA MON PIER    N/A     61  58  89 W9        29.91
TORRANCE       MOSUNNY   70  59  68 NW12      29.92
*UCLA            N/A     68  55  64 SW7       29.88F

$$

CAZ547-548-048-310000-
LA COUNTY VALLEYS AND INLAND EMPIRE


CITY           SKY/WX    TMP DP  RH WIND       PRES   REMARKS
BURBANK        SUNNY     82  56  40 S10       29.89F
VAN NUYS       SUNNY     87  54  32 S13       29.88F

CITY           SKY/WX    TMP DP  RH WIND       PRES   REMARKS
CORONA AIRPORT CLEAR     84  59  42 W12G20    29.87F
*CHATSWORTH      N/A     91  55  29 SW1       29.86S
CHINO          MOSUNNY   89  56  32 W15       29.88F
MARCH AFB      SUNNY     91  53  26 NW15      29.89F
*NORTHRIDGE      N/A     88  46  23 SE5G12      N/A
ONTARIO        PTSUNNY   89  56  32 SW14G22   29.88F
*PASADENA        N/A     86  61  42 CALM        N/A
POMONA         SUNNY     84  55  37 W12       29.93F
RIVERSIDE      SUNNY     90  54  29 W12G18    29.87F
SAN BERNARDINO PTSUNNY   93  46  20 W10       29.88F
*WHITEMAN AP   SUNNY     84  52  32 SE9       29.93F
*WOODLAND HILL   N/A     91  46  21 NE3         N/A

$$

CAZ054-055-310000-
LA AND SAN BERNARDINO COUNTY MOUNTAINS


CITY           SKY/WX    TMP DP  RH WIND       PRES   REMARKS
*BIG BEAR AIRP CLEAR     73  32  21 W12       30.23F
SANDBERG       SUNNY     88  27  11 S15G30    30.09F

$$

CAZ028-029-059-060-099-310000-
ANTELOPE VALLEY AND SURROUNDING AREAS


CITY           SKY/WX    TMP DP  RH WIND       PRES   REMARKS
LANCASTER      SUNNY     95  19   6 SW20G29   29.91F
PALMDALE       SUNNY     95  22   7 SW20G28   29.92F

CITY           SKY/WX    TMP DP  RH WIND       PRES   REMARKS
29 PALMS       SUNNY     98  33  10 S15       29.95F HX  92
BARSTOW/DAGGET SUNNY    101  27   7 NE9       29.84F HX  94
BISHOP         PTSUNNY   95  23   7 SE12      29.93F
CHINA LAKE     SUNNY    100  21   6 S12G18    29.86F HX  93
EDWARDS AFB    PTSUNNY   99  23   6 S14G21    29.87S HX  92
MOJAVE         FAIR      93  27   9 SW16G23   29.94F
NEEDLES        MOSUNNY  107  19   4 S10       29.82F HX  98
VICTORVILLE    SUNNY     97  27   8 S13       29.94F HX  90

$$

CAZ039-040-310000-
VENTURA AND SANTA BARBARA COUNTY COAST


CITY           SKY/WX    TMP DP  RH WIND       PRES   REMARKS
CAMARILLO      SUNNY     69  56  62 SW12      29.93F
OXNARD AIRPORT CLOUDY    65  56  72 W9        29.94F
*POINT MUGU    CLOUDY    66  56  70 VRB7      29.94F
SBA APT/GOLETA PTSUNNY   62  55  77 VRB7      29.94F
*SANTA BARBARA   N/A     69  55  59 N3        30.01F
*VENTURA         N/A     69  56  63 SW3       29.53F

$$

CAZ044-045-310000-
VENTURA COUNTY VALLEYS


CITY           SKY/WX    TMP DP  RH WIND       PRES   REMARKS
*SIMI VALLEY     N/A     78  58  50 W12       29.86S
*OJAI            N/A     86  57  37 W3        29.83F
*FILLMORE        N/A     79  60  51 CALM      29.81S

$$

CAZ053-310000-
VENTURA COUNTY MOUNTAINS


CITY           SKY/WX    TMP DP  RH WIND       PRES   REMARKS

$$

CAZ034-035-036-310000-
CENTRAL COAST AND SANTA YNEZ VALLEY


CITY           SKY/WX    TMP DP  RH WIND       PRES   REMARKS
SAN LUIS OBISP SUNNY     74  52  46 SE8       29.93F
SANTA MARIA    SUNNY     69  54  58 NW10      29.95F

CITY           SKY/WX    TMP DP  RH WIND       PRES   REMARKS
*CAL POLY SLO    N/A     77  57  50 S6          N/A
*LOMPOC        SUNNY     64  52  63 W14       29.96F
*PISMO BEACH     N/A     57  53  87 SW7       29.96F
*SANTA YNEZ    FAIR      81  48  32 W10       29.91F

$$

CAZ037-038-051-310000-
SAN LUIS OBISPO COUNTY INTERIOR AND CUYAMA VALLEY


CITY           SKY/WX    TMP DP  RH WIND       PRES   REMARKS
*CUYAMA          N/A     92  42  17 W20       29.77F
PASO ROBLES    SUNNY     86  46  24 SW22G29   29.87F

$$

CAZ032-033-061-310000-
SOUTHERN DESERTS


CITY           SKY/WX    TMP DP  RH WIND       PRES   REMARKS
BLYTHE         SUNNY    104  31   8 S9        29.80F HX  97
IMPERIAL       SUNNY    101  41  12 E7        29.77F HX  96
PALM SPRINGS   MOSUNNY  100  32   9 SE9       29.82F HX  94
THERMAL        SUNNY    101  22   6 SE12      29.76F HX  94

$$

ELSEWHERE ACROSS THE WESTERN UNITED STATES AND MEXICO


CITY           SKY/WX    TMP DP  RH WIND       PRES   REMARKS
DENVER, CO     MOSUNNY   71  44  37 E10G21    30.18F
GRAND CANYON,  MOSUNNY   80  22  11 S6        30.24F
HONOLULU, HI   MOSUNNY   86  66  51 NE18      29.95F
KAHULUI, MAUI  MOSUNNY   84  68  58 NE15      29.98F
LAKE TAHOE, CA MOSUNNY   78  35  21 SW8       30.14F
LAS VEGAS, NV  PTSUNNY  100  18   5 S8        29.83F HX  93
MAMMOTH LAKES, FAIR      75  25  15 W26       30.21S
MEXICO CITY, M RAIN      57  52  82 NW9       30.28S
PHOENIX, AZ    PTSUNNY  104  24   6 W6        29.82F HX  96
PORTLAND, OR   MOSUNNY   76  50  40 W9        29.91F
RENO, NV       PTSUNNY   89  25  10 W10G23    29.99F
SALT LAKE CITY MOSUNNY   84  41  21 SE7       30.01F
SAN DIEGO, CA  PTSUNNY   69  57  65 W8        29.92F
SAN FRANCISCO, MOSUNNY   63  52  67 NW21      29.91F
SAN JOSE, CA   MOSUNNY   72  55  55 W10       29.90F
SEATTLE, WA    MOSUNNY   69  44  40 VRB3      29.94F
TIJUANA, MEX   PTSUNNY   73  55  53 W12       29.93F

$$

STATION/POSITION TIME  TEMP    WIND        PRES    VSBY  WAVE
                       AIR SEA DIR/SP/G                  HT/PER
                 (UTC) (F)     (DEG/KT/KT) (MB)    (MI)  (FT/S)
POINT ARGUELLO B NOT AVBL
WEST SANTA BARBA 2250   56 58  310/ 12/ 14 1013.7F         4/14
POINT CONCEPTION NOT AVBL
EAST SANTA BARBA 2200   57 61  240/  8/ 10 1015.4F
SANTA MONICA BAY 2250   60 65  270/  6/ 10 1013.8F         3/15



USA.gov is the U.S. government's official web portal to all federal, state and local government web resources and services.